This demonstration page uses our WeatherBlox Daily Observations layout. Learn more.

Left ArrowRight Arrow

Hourly Observations for July 29, 2021

Temp ( °F °C ) Dew Point ( °F °C ) Humidity (%) Winds ( mph kmh ) Pressure ( in mb ) Visibility ( mi km ) Precip ( " mm )
12:15 am 00:15 Clear 78 25.4 70 21 77 77 S 5 7 29.91 1013 10 16 N/A
12:35 am 00:35 Clear 78 25.4 69 20.7 75 75 S 7 11 29.91 1013 10 16 N/A
12:55 am 00:55 Clear 79 25.9 69 20.3 71 71 S 9 15 29.91 1013 10 16 N/A
1:15 am 01:15 Clear 78 25.8 69 20.3 72 72 S 10 17 29.91 1013 10 16 N/A
1:35 am 01:35 Clear 78 25.5 68 20.2 73 73 S 10 17 29.91 1013 10 16 N/A
1:55 am 01:55 Clear 78 25.6 68 20.1 72 72 S 8 13 29.91 1013 10 16 N/A
2:15 am 02:15 Clear 78 25.5 68 20 72 72 S 8 13 29.91 1013 10 16 N/A
2:35 am 02:35 Partly Cloudy 78 25.5 67 19.7 70 70 SSW 8 13 29.91 1013 10 16 N/A
2:55 am 02:55 Partly Cloudy 77 25.2 67 19.6 71 71 S 5 7 29.91 1013 10 16 N/A
3:15 am 03:15 Clear 77 24.9 67 19.7 73 73 S 6 9 29.92 1013 10 16 N/A
3:35 am 03:35 Clear 75 23.7 68 20 80 80 S 5 7 29.93 1013 10 16 N/A
3:55 am 03:55 Clear 75 23.8 68 20 79 79 S 7 11 29.94 1014 10 16 N/A
4:15 am 04:15 Clear 74 23.5 68 20 81 81 SSW 5 7 29.94 1014 10 16 N/A
4:35 am 04:35 Clear 74 23.5 68 20 81 81 SSW 7 11 29.94 1014 10 16 N/A
4:55 am 04:55 Clear 74 23.5 68 19.9 80 80 SSW 8 13 29.94 1014 10 16 N/A
5:15 am 05:15 Clear 74 23.3 67 19.7 80 80 SSW 7 11 29.94 1014 10 16 N/A
5:35 am 05:35 Clear 73 23 67 19.7 82 82 SW 5 7 29.94 1014 10 16 N/A
5:55 am 05:55 Clear 73 23 67 19.7 82 82 SW 5 7 29.95 1014 10 16 N/A
6:15 am 06:15 Clear 73 23 67 19.6 81 81 SW 6 9 29.95 1014 10 16 N/A
6:35 am 06:35 Sunny 73 23 67 19.7 82 82 SSW 5 7 29.95 1014 10 16 N/A
6:55 am 06:55 Sunny 73 23 67 19.6 81 81 SW 3 6 29.95 1014 10 16 N/A
7:15 am 07:15 Sunny 73 23 68 20 83 83 SW 5 7 29.96 1015 10 16 N/A
7:35 am 07:35 Sunny 75 24.1 68 20 78 78 N N/A 29.95 1014 10 16 N/A
7:55 am 07:55 Sunny 77 24.8 69 20.4 77 77 N N/A 29.96 1014 10 16 N/A
8:15 am 08:15 Sunny 76 24.6 70 21 80 80 NNE 7 11 29.97 1015 10 16 N/A
8:35 am 08:35 Sunny 75 24.1 70 21.2 84 84 N N/A 29.98 1015 10 16 N/A
8:55 am 08:55 Sunny 77 25.1 70 21.1 79 79 NNE 5 7 29.99 1015 10 16 N/A
9:15 am 09:15 Sunny 79 26 70 21.2 75 75 N N/A 29.98 1015 10 16 N/A
9:35 am 09:35 Sunny 80 26.7 71 21.4 73 73 N N/A 29.98 1015 10 16 N/A
9:55 am 09:55 Sunny 81 27.2 71 21.5 71 71 NNE 5 7 29.98 1015 10 16 N/A
10:15 am 10:15 Sunny 82 27.8 70 21 67 67 N N/A 29.97 1015 10 16 N/A
10:35 am 10:35 Sunny 83 28.3 70 21.1 65 65 N N/A 29.97 1015 10 16 N/A
10:55 am 10:55 Sunny 84 29.1 70 21.3 63 63 N N/A 29.96 1015 10 16 N/A
11:15 am 11:15 Sunny 85 29.3 71 21.8 64 64 N N/A 29.96 1015 10 16 N/A
11:35 am 11:35 Sunny 86 30.2 72 22.3 63 63 N N/A 29.96 1014 10 16 N/A
11:55 am 11:55 Sunny 86 30.1 72 22.1 62 62 N N/A 29.96 1014 10 16 N/A
12:15 pm 12:15 Sunny 88 31 71 21.8 58 58 N N/A 29.95 1014 10 16 N/A
12:35 pm 12:35 Sunny 88 31 71 21.7 58 58 N N/A 29.95 1014 10 16 N/A
12:55 pm 12:55 Sunny 88 31.1 74 23.1 62 62 N N/A 29.95 1014 10 16 N/A
1:15 pm 13:15 Sunny 88 31.3 73 22.8 61 61 ESE 5 7 29.95 1014 10 16 N/A
1:35 pm 13:35 Sunny 89 31.5 73 22.6 59 59 ESE 6 9 29.94 1014 10 16 N/A
1:55 pm 13:55 Sunny 89 31.7 73 23 60 60 E 6 9 29.93 1014 10 16 N/A
2:15 pm 14:15 Sunny 89 31.8 74 23.3 61 61 ESE 5 7 29.93 1014 10 16 N/A
2:35 pm 14:35 Sunny 90 32.1 75 23.7 61 61 E 6 9 29.93 1014 10 16 N/A
2:55 pm 14:55 Sunny 90 32.2 75 23.8 61 61 SE 6 9 29.93 1014 10 16 N/A
3:15 pm 15:15 Sunny 90 32.4 74 23.2 58 58 SE 6 9 29.92 1013 7 11 N/A
3:35 pm 15:35 Sunny 91 32.8 74 23.5 58 58 E 7 11 29.92 1013 7 11 N/A
3:55 pm 15:55 Sunny 91 32.8 72 22.3 54 54 E 6 9 29.92 1013 7 11 N/A
4:15 pm 16:15 Sunny 91 33 73 22.5 54 54 E 7 11 29.90 1013 10 16 N/A
4:35 pm 16:35 Sunny 91 33 73 22.9 55 55 E 6 9 29.90 1013 10 16 N/A
4:55 pm 16:55 Sunny 91 32.9 75 23.9 59 59 E 7 11 29.89 1012 10 16 N/A
5:15 pm 17:15 Sunny 91 33 77 24.9 62 62 E 6 9 29.90 1013 10 16 N/A
5:35 pm 17:35 Sunny 92 33.2 74 23.5 57 57 E 7 11 29.89 1012 10 16 N/A
5:55 pm 17:55 Sunny 91 33 74 23.1 56 56 E 7 11 29.90 1013 10 16 N/A
6:15 pm 18:15 Sunny 91 32.7 75 23.8 59 59 ENE 5 7 29.91 1013 10 16 N/A
6:35 pm 18:35 Sunny 89 31.7 77 24.8 67 67 ENE 8 13 29.90 1013 10 16 N/A
6:55 pm 18:55 Sunny 89 31.5 78 25.4 70 70 ENE 6 9 29.91 1013 10 16 N/A
7:15 pm 19:15 Sunny 88 31 77 25.1 71 71 ENE 8 13 29.91 1013 10 16 N/A
7:35 pm 19:35 Sunny 86 30.1 79 26 79 79 ENE 14 22 29.92 1013 10 16 N/A
7:55 pm 19:55 Sunny 84 28.9 79 26 84 84 ENE 17 28 29.93 1013 10 16 N/A
8:15 pm 20:15 Sunny 82 28 78 25.5 86 86 ENE 14 22 29.93 1014 7 11 N/A
8:35 pm 20:35 Sunny 81 27.3 77 25 87 87 ENE 14 22 29.95 1014 7 11 N/A
8:55 pm 20:55 Partly Cloudy 80 26.6 76 24.7 89 89 ENE 13 20 29.95 1014 7 11 N/A
9:15 pm 21:15 Mostly Cloudy 79 26.3 76 24.7 91 91 NE 10 17 29.97 1015 7 11 N/A
9:35 pm 21:35 Partly Cloudy 79 26 76 24.5 91 91 ENE 14 22 29.96 1015 7 11 N/A
9:55 pm 21:55 Mostly Cloudy 79 26 75 24.1 89 89 ENE 14 22 29.97 1015 10 16 N/A
10:15 pm 22:15 Partly Cloudy 78 25.7 75 24 90 90 E 12 19 29.98 1015 7 11 N/A
10:35 pm 22:35 Partly Cloudy 78 25.4 75 24 92 92 E 9 15 29.99 1016 7 11 N/A
10:55 pm 22:55 Mostly Cloudy 77 25.2 75 23.8 92 92 E 10 17 29.98 1015 7 11 N/A
11:15 pm 23:15 Partly Cloudy 77 25 74 23.6 92 92 E 10 17 30.00 1016 7 11 N/A
11:35 pm 23:35 Partly Cloudy 77 24.8 74 23.5 93 93 E 10 17 30.00 1016 7 11 N/A
11:55 pm 23:55 Partly Cloudy with Mist and Fog 76 24.6 74 23.5 94 94 E 10 17 30.00 1016 5 8 N/A

Powered by AerisWeather